Weather in Pasikudah

Sri Lanka     7°55′48″N   81°33′32″E
В апреле 2022 года жителям России запретили посещать сайт meteo.paraplan.net по решению Генеральной прокуратуры. Аудитория сайта уменьшилась в 10 раз. Владельцы сайта не видят смысла в поддержке погодного сервера в таких условиях. Сайт будет закрыт в октябре.
temp.,
°C
wind,
m/s
gust,
m/s
humid.,
%
clouds,
%
prec.,
mm/h
press.,
hPa
HPBL,
m
6 october, thu
thu623:30+26ssw3480100 2.2 1008237
02:30+25wsw4584100 0.6 1006200
05:30+26wsw3471100 0.7 1007231
08:30+29wsw465882 0.0 1008677
11:30+33wsw374698 0.0 10061292
14:30+33wsw175099 0.0 10031308
17:30+29se3565100 0.4 1005306
20:30+28wnw4865100 0.1 1009552
7 october, fri
fri723:30+27wnw3568100 0.1 1008329
02:30+26wsw3574100 0.0 1006227
05:30+26sw3477100 0.0 1007189
08:30+29sw236188 0.0 1009789
11:30+31n145193 0.0 10071063
14:30+30ene5660100 0.4 1004714
17:30+28ne3371100 2.4 1006227
20:30+28wnw71169100 1.8 1008686
8 october, sat
sat823:30+27wnw71272100 1.9 1008637
02:30+27wnw61067100 0.0 1006654
05:30+26w586950 0.0 1007465
08:30+29wsw465661 0.0 1009938
11:30+31nw0454100 0.1 10071279
14:30+29nne456586 1.3 1005650
17:30+29nnw586715 2.4 1006448
20:30+27wnw59719 0.6 1008455
9 october, sun
sun923:30+25w58775 0.6 1008288
02:30+24wsw358096 0.0 1007165
05:30+24wsw348198 0.0 1008139
08:30+28ssw236485 0.0 1010530
11:30+32e445510 0.0 10081280
14:30+29ese667095 0.0 1005378
17:30+27ese567875 2.5 1007221
20:30+27e447930 1.3 1009157
10 october, mon
mon1023:30+27n237725 1.3 1010254
02:30+25nw3383100 0.0 1008144
05:30+25w2282100 0.0 100994
08:30+28w1168100 0.0 1010374
11:30+31ene3256100 0.0 1009912
14:30+31e755854 0.0 1006737
17:30+27e4577100 1.4 1008204
20:30+27e358098 3.3 1010242